STARLINK-32741 (62526 NORAD) Tracking and Keplerian Element Data

This shows tracking and keplerian element data for the satellite.

Feedback or suggestion? Click here.




ElementValue
Catalog62526
NameSTARLINK-32741
Epoch Orbit542
Epoch Day34.83335648
Epoch Year2025
RAAN317.7389
Inclination42.9991
Eccentricity0.0001308
Argument of Perigee258.4057
Mean Anonmoly229.3558
Mean Motion15.50596088
Decay Rate-0.00013932
L11 62526U 25004R 25034.83335648 -.00013932 00000+0 -23194-3 0 9997
L22 62526 42.9991 317.7389 0001308 258.4057 229.3558 15.50596088 5420



Live tracking and technical data element details for STARLINK-32741 (NORAD 62526). STARLINK-32741 can be tracked NOW for your location showing map with azimuth and elevation plus other details from your city location.







IsCatalogInMostPopularTable: catalog: 62526, numindb: 13
Update: records affected: 1



GetName: 62526 STARLINK-32741

Hit Count: updated at: Mon, 19 May 2025 01:44:47 GMT